Back to catalog

STARLINK-33861

AliveCommunicationsVLEO
NORAD 63678·PAYLOAD·🇺🇸 United States

Launched Apr 28, 2025 from Cape Canaveral Space Force Station

Loading…

Next Passes (next 24 hours)

TLE

FreshSource: CelesTrak SupGP

Epoch: Sep 14, 2026, 22:50 UTC

1 63678C 25085Q   26257.95187500  .00029937  00000+0  10842-2 0  2570
2 63678  43.0009  42.2821 0001695 275.0187  48.1371 15.27566364    18

Track STARLINK-33861 in real time with AllMySat

Download on the App Store